Weather History for KMKJ - December, 2012

Change the Weather History Date:

Monday, December 10, 2012

  Actual Average (KGEV) Record (KGEV)
Temperature  
Mean Temperature 50 °F -  
Max Temperature 58 °F 48 °F 68 °F (2007)
Min Temperature 42 °F 26 °F 8 °F (1977)
Degree Days  
Heating Degree Days 15    
Moisture  
Dew Point 53 °F    
Average Humidity 92    
Maximum Humidity 100    
Minimum Humidity 79    
Precipitation  
Precipitation 0.44 in - - ()
Sea Level Pressure  
Sea Level Pressure 29.80 in    
Wind  
Wind Speed 4 mph (West)    
Max Wind Speed 16 mph    
Max Gust Speed 22 mph    
Visibility 9 miles    
Events Rain , Thunderstorm    
Averages and records for this station are not official NWS values.
T = Trace of Precipitation, MM = Missing Value Source: NWS Daily Summary

Daily Weather History Graph

Daily Weather History Graph

Search for Another Location

Airport or City:

Trip Planner

Search our weather history database for the weather conditions in past years. The results will help you decide how hot, cold, wet, or windy it might be!

Date:

Astronomy

Dec. 10, 2012 Rise Set
Actual Time 7:27 AM EST 5:09 PM EST
Civil Twilight 6:58 AM EST 5:37 PM EST
Nautical Twilight 6:26 AM EST 6:10 PM EST
Astronomical Twilight 5:55 AM EST 6:41 PM EST
Moon 4:12 AM EST (12/10) 2:55 PM EST (12/10)
Length of Visible Light 10h 38m
Length of Day
9h 41m
Waning Crescent, 10% of the Moon is Illuminated
Dec 10
Waning Crescent
Dec 13
New
Dec 20
First Quarter
Dec 28
Full
Jan 4
Last Quarter

Hourly Weather History & Observations

Time (EST) Temp. Windchill Dew Point Humidity Pressure Visibility Wind Dir Wind Speed Gust Speed Precip Events Conditions
12:15 AM 58.3 °F - 51.8 °F 79% 29.98 in 10.0 mi Calm Calm - N/A   Scattered Clouds
12:35 AM 58.3 °F - 51.8 °F 79% 29.96 in 10.0 mi Calm Calm - N/A   Clear
12:55 AM 57.2 °F - 51.3 °F 81% 29.95 in 10.0 mi Calm Calm - N/A   Clear
1:15 AM 55.2 °F - 50.5 °F 84% 29.95 in 10.0 mi Calm Calm - N/A   Clear
1:35 AM 55.2 °F - 50.5 °F 84% 29.94 in 10.0 mi Calm Calm - N/A   Clear
1:55 AM 54.1 °F - 50.7 °F 88% 29.93 in 10.0 mi Calm Calm - N/A   Scattered Clouds
2:15 AM 52.3 °F - 51.1 °F 95% 29.92 in 10.0 mi Calm Calm - N/A   Scattered Clouds
2:35 AM 51.3 °F - 50.4 °F 97% 29.91 in 10.0 mi North 4.6 mph - N/A   Clear
2:55 AM 53.8 °F - 50.9 °F 90% 29.90 in 10.0 mi NE 3.5 mph - N/A   Clear
3:15 AM 53.8 °F - 51.1 °F 91% 29.89 in 10.0 mi Calm Calm - N/A   Clear
3:55 AM 54.0 °F - 50.7 °F 89% 29.87 in 10.0 mi Calm Calm - N/A   Clear
4:15 AM 52.5 °F - 50.9 °F 94% 29.86 in 10.0 mi Calm Calm - N/A   Clear
4:35 AM 53.1 °F - 51.1 °F 93% 29.86 in 10.0 mi Calm Calm - N/A   Clear
4:55 AM 53.4 °F - 50.7 °F 91% 29.86 in 10.0 mi Calm Calm - N/A   Scattered Clouds
5:15 AM 54.0 °F - 50.9 °F 89% 29.86 in 10.0 mi NE 4.6 mph - N/A   Scattered Clouds
5:35 AM 54.5 °F - 51.4 °F 89% 29.84 in 10.0 mi NNE 4.6 mph - N/A   Clear
5:55 AM 55.0 °F - 51.4 °F 88% 29.83 in 10.0 mi Calm Calm - N/A   Scattered Clouds
6:15 AM 55.9 °F - 51.8 °F 86% 29.81 in 10.0 mi ENE 4.6 mph - N/A   Mostly Cloudy
6:35 AM 55.6 °F - 52.2 °F 88% 29.82 in 10.0 mi NE 4.6 mph - N/A   Overcast
6:55 AM 57.6 °F - 52.2 °F 82% 29.82 in 10.0 mi NE 3.5 mph - N/A Thunderstorm Overcast
7:15 AM 58.6 °F - 52.2 °F 79% 29.81 in 10.0 mi Calm Calm - N/A   Overcast
7:35 AM 56.5 °F - 52.2 °F 85% 29.81 in 10.0 mi Calm Calm - N/A   Overcast
7:55 AM 56.1 °F - 52.3 °F 87% 29.82 in 10.0 mi Calm Calm - N/A   Overcast
8:15 AM 55.9 °F - 53.2 °F 91% 29.82 in 10.0 mi Calm Calm - N/A   Overcast
8:35 AM 57.0 °F - 52.9 °F 86% 29.82 in 10.0 mi Calm Calm - N/A   Overcast
8:55 AM 57.2 °F - 53.6 °F 88% 29.82 in 10.0 mi Calm Calm - N/A Rain Light Rain
9:15 AM 57.2 °F - 54.5 °F 91% 29.83 in 10.0 mi WNW 11.5 mph 16.1 mph N/A Rain Rain
9:35 AM 56.7 °F - 55.2 °F 95% 29.83 in 10.0 mi Calm Calm - 0.01 in Rain Light Rain
9:55 AM 56.3 °F - 55.4 °F 97% 29.82 in 10.0 mi WSW 4.6 mph - 0.01 in   Drizzle
10:15 AM 55.9 °F - 54.5 °F 95% 29.84 in 5.0 mi WSW 6.9 mph - 0.03 in Rain Light Rain
10:35 AM 55.6 °F - 54.7 °F 97% 29.84 in 4.0 mi WSW 9.2 mph - 0.06 in Rain Light Rain
10:55 AM 56.7 °F - 56.3 °F 99% 29.84 in 4.0 mi WSW 8.1 mph - 0.07 in Rain Light Rain
11:15 AM 56.5 °F - 55.8 °F 97% 29.82 in 10.0 mi West 10.4 mph - N/A   Light Drizzle
11:35 AM 56.7 °F - 55.9 °F 97% 29.82 in 10.0 mi WSW 11.5 mph 16.1 mph N/A Rain Light Rain
11:55 AM 56.5 °F - 55.2 °F 96% 29.80 in 10.0 mi WSW 6.9 mph - N/A   Overcast
12:15 PM 58.5 °F - 55.0 °F 88% 29.78 in 10.0 mi WSW 10.4 mph - N/A   Overcast
12:35 PM 58.1 °F - 55.0 °F 90% 29.76 in 10.0 mi West 11.5 mph - N/A   Overcast
12:55 PM 57.6 °F - 54.0 °F 88% 29.75 in 10.0 mi West 11.5 mph - N/A   Overcast
1:15 PM 57.9 °F - 54.3 °F 88% 29.73 in 10.0 mi West 9.2 mph - N/A   Overcast
1:35 PM 58.1 °F - 53.6 °F 85% 29.71 in 10.0 mi West 8.1 mph - N/A   Overcast
1:55 PM 58.6 °F - 54.0 °F 84% 29.72 in 10.0 mi WSW 6.9 mph - N/A   Overcast
2:15 PM 58.5 °F - 54.0 °F 85% 29.72 in 10.0 mi West 11.5 mph - N/A   Overcast
2:35 PM 57.9 °F - 54.5 °F 88% 29.73 in 10.0 mi WSW 8.1 mph - N/A   Drizzle
2:55 PM 57.2 °F - 55.8 °F 95% 29.73 in 7.0 mi WSW 5.8 mph - 0.01 in Rain Light Rain
3:15 PM 57.2 °F - 56.1 °F 96% 29.73 in 10.0 mi West 6.9 mph - N/A Rain Light Rain
3:35 PM 56.8 °F - 56.3 °F 98% 29.73 in 10.0 mi West 5.8 mph - 0.02 in Rain Light Rain
3:55 PM 56.7 °F - 56.1 °F 98% 29.74 in 10.0 mi West 6.9 mph - 0.03 in Rain Light Rain
4:15 PM 56.3 °F - 55.6 °F 97% 29.73 in 10.0 mi WSW 8.1 mph - 0.02 in Rain Rain
4:35 PM 56.3 °F - 55.8 °F 98% 29.72 in 10.0 mi WSW 8.1 mph - 0.04 in Rain Light Rain
4:55 PM 55.9 °F - 55.8 °F 99% 29.73 in 5.0 mi WSW 6.9 mph - 0.06 in Rain Light Rain
5:15 PM 55.8 °F - 55.6 °F 99% 29.73 in 5.0 mi WSW 6.9 mph - N/A   Drizzle
5:35 PM 55.6 °F - 55.4 °F 99% 29.72 in 10.0 mi West 6.9 mph - N/A   Overcast
5:55 PM 55.6 °F - 55.4 °F 99% 29.71 in 10.0 mi West 5.8 mph - 0.01 in   Overcast
6:15 PM 55.4 °F - 55.0 °F 99% 29.72 in 10.0 mi West 4.6 mph - N/A   Overcast
6:35 PM 55.0 °F - 54.9 °F 99% 29.71 in 10.0 mi WSW 3.5 mph - N/A   Overcast
6:55 PM 55.0 °F - 54.9 °F 99% 29.72 in 7.0 mi West 6.9 mph - N/A   Overcast
7:15 PM 55.4 °F - 55.0 °F 99% 29.71 in 10.0 mi West 4.6 mph - N/A   Overcast
7:35 PM 55.4 °F - 55.0 °F 99% 29.70 in 7.0 mi West 4.6 mph - N/A   Drizzle
7:55 PM 55.0 °F - 54.9 °F 99% 29.70 in 10.0 mi WSW 5.8 mph - N/A   Overcast
8:15 PM 55.2 °F - 54.9 °F 99% 29.70 in 10.0 mi West 8.1 mph - N/A Rain Light Rain
8:35 PM 55.2 °F - 54.9 °F 99% 29.70 in 5.0 mi West 6.9 mph - 0.02 in Rain Rain
8:55 PM 55.0 °F - 54.9 °F 99% 29.70 in 4.0 mi WSW 5.8 mph - 0.09 in Rain Rain
9:15 PM 55.2 °F - 55.2 °F 100% 29.71 in 5.0 mi West 8.1 mph - 0.08 in Rain Heavy Rain
9:55 PM 49.6 °F - 46.9 °F 90% 29.75 in 10.0 mi West 16.1 mph 21.9 mph 0.15 in Rain Rain
10:15 PM 47.3 °F - 43.7 °F 87% 29.77 in 10.0 mi West 11.5 mph 21.9 mph 0.01 in   Light Drizzle
10:35 PM 45.5 °F 41.8 °F 42.4 °F 89% 29.78 in 10.0 mi West 6.9 mph 21.9 mph 0.01 in   Overcast
10:55 PM 44.8 °F 39.4 °F 40.8 °F 86% 29.79 in 10.0 mi West 10.4 mph - 0.01 in   Overcast
11:15 PM 43.9 °F 39.3 °F 41.7 °F 92% 29.82 in 10.0 mi West 8.1 mph - N/A Rain Rain
11:35 PM 42.8 °F 39.3 °F 40.8 °F 93% 29.81 in 7.0 mi WNW 5.8 mph - N/A   Light Drizzle
11:55 PM 42.3 °F 36.8 °F 40.3 °F 93% 29.82 in 10.0 mi West 9.2 mph - N/A   Overcast